Regional Weather Roundup
Issued by NWS

Home | Current Version | Previous Version | Graphics & Text | Print | Product List | Glossary On
Versions: 1 2 3 4 5 6 7 8 9 10 11 12 13 14 15 16 17 18 19 20 21 22 23 24 25 26 27 28 29 30 31 32 33 34 35 36 37 38 39 40 41 42 43 44 45 46 47 48 49 50
000
ASUS45 KBOU 230907
RWRCO

WEATHER ROUNDUP FOR COLORADO
NATIONAL WEATHER SERVICE DENVER/BOULDER CO
300 AM MDT SAT AUG 23 2014

NOTE: "FAIR" INDICATES FEW OR NO CLOUDS BELOW 12000 FEET WITH NO
SIGNIFICANT WEATHER AND/OR OBSTRUCTIONS TO VISIBILITY.

COZ001>005-013-030-031-231000-
...NORTHWEST COLORADO...

CITY           SKY/WX    TMP DP  RH WIND       PRES   REMARKS
CRAIG          LGT RAIN  52  47  83 W5        30.10S
HAYDEN         CLOUDY    48  45  87 W6        30.10R
MEEKER         RAIN      54  49  83 N16       30.08R
MOUNT WERNER   NOT AVBL
STEAMBOAT SPGS MOCLDY    51  51  99 CALM      30.10R
WALDEN         CLOUDY    50  43  76 SE5       30.14F
$$

COZ006>008-011-231000-
...WEST CENTRAL VALLEYS...

CITY           SKY/WX    TMP DP  RH WIND       PRES   REMARKS
GRAND JUNCTION CLOUDY    62  52  69 S8        30.00R
MONTROSE       CLOUDY    59  50  72 S5        30.08F
EAGLE          CLOUDY    54  48  82 E3        30.12F
RIFLE          MOCLDY    56  53  90 NW3       30.03F
DELTA          RAIN      63  50  62 NE6       30.05F
NUCLA          CLOUDY    55  50  82 E5        30.13F
$$

COZ017>023-064>068-231000-
...SOUTHWEST COLORADO...

CITY           SKY/WX    TMP DP  RH WIND       PRES   REMARKS
DURANGO        CLOUDY    52  50  93 CALM      30.20F
CORTEZ         CLOUDY    57  52  83 SE3       30.14F
PAGOSA SPRINGS   N/A     51  49  93 CALM      30.27R
TELLURIDE      CLOUDY    52  43  71 CALM      30.29F
WOLF CREEK PAS NOT AVBL
$$

COZ009-010-012-014-032>034-037-058>063-231000-
...CENTRAL COLORADO...

CITY           SKY/WX    TMP DP  RH WIND       PRES   REMARKS
ASPEN          CLOUDY    52  44  74 SW6       30.16F
BUENA VISTA    MOCLDY    46  43  89 W5        30.21F
COPPER MTN     CLOUDY    45  36  70 S15G21    30.41S
BERTHOUD PASS  FAIR      36  34  93 W9G16     30.42F
COTTONWOOD PAS CLOUDY    46  45  93 SE5       30.31S
GUNNISON       MOCLDY    48  45  87 CALM      30.24S
KREMMLING      MOCLDY    50  45  81 W3        30.16S
LEADVILLE      MOCLDY    43  42  97 SE3       30.29S
MONARCH PASS   FOG       37  37 100 SW21      30.52F VSB<1/4
SALIDA         MOCLDY    55  46  70 CALM      30.25S
SUNLIGHT       CLOUDY    45  41  87 CALM      30.32S
WILKERSON PASS NOT AVBL
$$

COZ069>075-231000-
...SAN LUIS VALLEY/SANGRE DE CRISTO MOUNTAINS...

CITY           SKY/WX    TMP DP  RH WIND       PRES   REMARKS
ALAMOSA        CLOUDY    49  48  97 CALM      30.22S
LA VETA PASS   NOT AVBL
SAGUACHE       MOCLDY    50  48  93 CALM      30.25F
$$

COZ035-036-038>040-231000-
...NORTHERN COLORADO FRONT RANGE...

CITY           SKY/WX    TMP DP  RH WIND       PRES   REMARKS
DENVER INTL AP MOCLDY    60  57  89 E3        30.00F
DMNS CITY PARK   N/A     59  56  90 SE5       29.99F
AURORA         NOT AVBL
FRONT RANGE AP PTCLDY    61  59  94 CALM      30.02F
ERIE MUNI ARPT PTCLDY    59  57  94 SE5       29.98F
BOULDER MUN AP PTCLDY    59  59 100 CALM      29.98F
CENTENNIAL     PTCLDY    56  54  93 S6        30.03F
BROOMFIELD     PTCLDY    57  55  94 SE5       30.01F
FORT COLLINS   PTCLDY    59  55  88 SE6       29.99F
LONGMONT       PTCLDY    61  59  91 CALM      30.00S
$$

COZ041-046-047-076>085-087-088-231000-
...PIKES PEAK/PALMER DIVIDE AND SOUTHERN FOOTHILLS...

CITY           SKY/WX    TMP DP  RH WIND       PRES   REMARKS
COLO. SPRINGS  PTCLDY    55  51  86 CALM      30.07F
A. F. ACADEMY  MOCLDY    50  50 100 N5        30.08F
ELLICOTT       FOG       52  51  97 CALM      30.05F VSB 1
FALCON         PTCLDY    52  51  97 W3        30.11S
FORT CARSON    MOCLDY    54  52  94 E1        30.05S
LIMON          MOCLDY    54  54 100 NE9       30.03F FOG
MONUMENT HILL  FOG       50  48  93 SW5       30.09F VSB 1/2
TRINIDAD       CLEAR     56  52  86 W12       30.06F
$$

COZ042>045-048>051-090-091-231000-
...NORTHEAST COLORADO...

CITY           SKY/WX    TMP DP  RH WIND       PRES   REMARKS
GREELEY ARPT   PTCLDY    61  55  82 E8        29.98F
AKRON          CLOUDY    61  60  97 SE6       30.00F FOG
BURLINGTON     CLOUDY    64  62  93 SW5       29.98F
WRAY             N/A    N/A N/A N/A SW5       29.95F
STERLING       CLOUDY    64  63  94 CALM      29.96F
HOLYOKE        NOT AVBL
FORT MORGAN    CLOUDY    61  58  91 CALM      29.99F
$$

COZ086-089-092>099-231000-
...SOUTHEAST COLORADO...

CITY           SKY/WX    TMP DP  RH WIND       PRES   REMARKS
PUEBLO         CLEAR     56  53  90 NW3       29.99F
LA JUNTA       PTCLDY    63  61  93 W3        29.96F
LAMAR          PTCLDY    65  61  87 E3        29.93F
SPRINGFIELD      N/A     66  60  81 SW9       29.97F
$$


USA.gov is the U.S. government's official web portal to all federal, state and local government web resources and services.